Lexington Weather

Lexington, Massachusetts, USA

47°F
12/8/2022 3:28pm 
  • Lexington Conditions: Clear
  • Temperature: 47.1°F / 8.4°CColder 2.0°F than last hour.
  • Dew Point: 34.7°FDecreased 0.7°Fsince last hour.
  • Relative Humidity: 62%Increased 3.0% since last hour.
  • Wind: Wind from NNW NNW Calm, 10-min avg: 2 mph, gust: 8 mph
  • Barometer: 30.09 inRising 0.02  inHg/hr Rising Slowly
  • Visibility: 10 miles
  • Rain Today: 0.00 in
  •   

Warning: Undefined variable $rc in /homepages/6/d276339138/htdocs/weather/20190804/ssi/nwsProduct.php on line 323

Warning: Undefined variable $rc in /homepages/6/d276339138/htdocs/weather/20190804/ssi/nwsProduct.php on line 325

Warning: Undefined variable $rc in /homepages/6/d276339138/htdocs/weather/20190804/ssi/nwsProduct.php on line 323

Warning: Undefined variable $rc in /homepages/6/d276339138/htdocs/weather/20190804/ssi/nwsProduct.php on line 325

Warning: Undefined variable $rc in /homepages/6/d276339138/htdocs/weather/20190804/ssi/nwsProduct.php on line 323

Warning: Undefined variable $rc in /homepages/6/d276339138/htdocs/weather/20190804/ssi/nwsProduct.php on line 325

Warning: Undefined variable $rc in /homepages/6/d276339138/htdocs/weather/20190804/ssi/nwsProduct.php on line 323

Warning: Undefined variable $rc in /homepages/6/d276339138/htdocs/weather/20190804/ssi/nwsProduct.php on line 325

Warning: Undefined variable $rc in /homepages/6/d276339138/htdocs/weather/20190804/ssi/nwsProduct.php on line 323

Warning: Undefined variable $rc in /homepages/6/d276339138/htdocs/weather/20190804/ssi/nwsProduct.php on line 325

Warning: Undefined variable $rc in /homepages/6/d276339138/htdocs/weather/20190804/ssi/nwsProduct.php on line 323

Warning: Undefined variable $rc in /homepages/6/d276339138/htdocs/weather/20190804/ssi/nwsProduct.php on line 325

Warning: Undefined variable $rc in /homepages/6/d276339138/htdocs/weather/20190804/ssi/nwsProduct.php on line 323

Warning: Undefined variable $rc in /homepages/6/d276339138/htdocs/weather/20190804/ssi/nwsProduct.php on line 325

Regional Weather Roundup
for Boston, MA

        
000
ASUS41 KBOX 061710
RWRBOX

REGIONAL WEATHER ROUNDUP
NATIONAL WEATHER SERVICE BOSTON/NORTON MA
1200 PM EST TUE DEC 06 2022

NOTE:  "FAIR" INDICATES FEW OR NO CLOUDS BELOW 12,000 FEET WITH NO 
SIGNIFICANT WEATHER AND/OR OBSTRUCTIONS TO VISIBILITY.

MAZALL-061800-
EASTERN MASSACHUSETTS
  
CITY           SKY/WX    TMP DP  RH WIND       PRES   REMARKS
BOSTON         CLOUDY    53  43  68 SE3       30.42F                  
BEVERLY        NOT AVBL                                               
LAWRENCE       SUNNY     53  43  68 S7        30.43F                  
BEDFORD        SUNNY     50  41  71 CALM      30.40F                  
NORWOOD        SUNNY     57  42  57 SE6       30.40F                  
MARSHFIELD       N/A     54  45  71 SE12      30.41S                  
PLYMOUTH       SUNNY     56  42  59 SE9       30.40F                  
TAUNTON          N/A    N/A N/A N/A MISG      30.40F                  
NEW BEDFORD    SUNNY     56  45  66 SE13      30.40F                  
$$

MAZALL-061800-
CAPE COD AND THE ISLANDS
  
CITY           SKY/WX    TMP DP  RH WIND       PRES   REMARKS
FALMOUTH       SUNNY     54  46  76 SE14G25   30.41F                  
HYANNIS        SUNNY     52  46  80 SE9G17    30.40F                  
CHATHAM        SUNNY     54  47  77 SE9G17    30.43F                  
PROVINCETOWN   SUNNY     54  46  74 SE12G17   30.43F                  
NANTUCKET      SUNNY     56  49  77 SE18      30.41F                  
MARTHAS VNYRD  SUNNY     55  47  74 SE16G25   30.40F                  
$$
 
MAZALL-061800-
CENTRAL AND WESTERN MASSACHUSETTS
  
CITY           SKY/WX    TMP DP  RH WIND       PRES   REMARKS
WORCESTER      CLOUDY    50  43  77 SE8       30.36F                  
FITCHBURG      CLOUDY    47  38  71 E5        30.39F                  
ORANGE         CLOUDY    49  42  77 CALM      30.35F                  
SPRINGFIELD    LGT RAIN  46  39  77 NW3       30.33F                  
WESTFIELD      LGT RAIN  41  35  79 N5        30.35F                  
NORTH ADAMS    LGT RAIN  49  44  83 SE20G26   30.31F                  
PITTSFIELD     LGT RAIN  48  43  82 S10G20    30.29F                  
$$
 
RIZALL-061800-
RHODE ISLAND
  
CITY           SKY/WX    TMP DP  RH WIND       PRES   REMARKS
PROVIDENCE     CLOUDY    54  46  74 S9        30.40S                  
NEWPORT        NOT AVBL                                               
BLOCK ISLAND   SUNNY     55  49  80 SE15G22   30.38R                  
SMITHFIELD     SUNNY     53  45  74 S7        30.39F                  
WESTERLY       SUNNY     57  50  77 SE10      30.37F                  
$$
 
CTZALL-061800-
CONNECTICUT
  
CITY           SKY/WX    TMP DP  RH WIND       PRES   REMARKS
BRADLEY INTL   CLOUDY    46  39  76 NW5       30.35F                  
HARTFORD       CLOUDY    49  41  74 N3        30.35F                  
BRIDGEPORT     CLOUDY    56  48  74 SE16      30.31F                  
DANBURY        CLOUDY    52  45  77 CALM      30.32F                  
GROTON         PTSUNNY   58  50  75 SE13      30.35F                  
NEW HAVEN      CLOUDY    57  49  74 SE9       30.32F                  
CHESTER        FAIR     N/A N/A N/A SE10      30.34F                  
MERIDEN        CLOUDY    45  36  70 CALM      30.34F                  
WILLIMANTIC    PTSUNNY   56  46  69 SE10      30.35F                  
OXFORD         LGT RAIN  52  46  80 SE8       30.32F                  
$$

MEZ002-015-021-024-NHZ003-005-008-011-012-014-VTZ005-008-061800-
NORTHERN NEW ENGLAND
  
CITY           SKY/WX    TMP DP  RH WIND       PRES   REMARKS
PORTLAND ME    CLOUDY    51  43  74 SE12      30.46F                  
BANGOR ME      CLOUDY    49  39  68 S8        30.50F                  
CONCORD NH     CLOUDY    52  42  69 SE12G22   30.40F                  
MANCHESTER NH  PTSUNNY   51  42  71 SE9       30.39F                  
NASHUA NH      SUNNY     49  45  86 E6        30.41F                  
PORTSMOUTH NH  CLOUDY    52  44  74 SE10      30.42F                  
JAFFREY NH     CLOUDY    49  40  71 VRB6      30.36F                  
KEENE NH       CLOUDY    49  42  77 S6          N/A                   
BURLINGTON VT  LGT RAIN  47  38  71 S5        30.28F                  
MT. WASHINGTON FRZ RAIN  27  27 100 S32G40      N/A  VSB 0   WCI  10  
$$

NYZ052-076-061800-
EASTERN NEW YORK
  
CITY           SKY/WX    TMP DP  RH WIND       PRES   REMARKS
ALBANY         CLOUDY    44  40  85 NE3       30.29F                  
NEW YORK CITY  CLOUDY    57  50  77 S13       30.29S                  
$$
 
ANZALL-061800-
MARINE OBSERVATIONS
  
STATION/POSITION TIME  TEMP    WIND        PRES    VSBY  WAVE
                       AIR SEA DIR/SP/G                  HT/PER
                 (UTC) (F)     (DEG/KT/KT) (MB)    (MI)  (FT/S)
BOSTON BUOY      1650      51  140/ 14/ 16 1030.3F         3/ 5
BUZZARDS BAY     1600   53     130/ 19/ 20 1029.4F
NANTUCKET SOUND  1650   51 49  120/ 14/ 16 1029.5F         2/ 3
MASS BAY-STELLWA 1504   51 50  140/ 16/ 19 1030.3R  1 7/8  4/ 5
ISLE OF SHOALS   1600   50     140/ 18/ 20 1030.0F
S OF BLOCK IS    1656      54                N/A           5/ 5
$$

......................KEY.........................
  SKY/WX - SKY CONDITION/PRESENT WEATHER
  TMP    - TEMPERATURE IN FAHRENHEIT
  DWPT   - DEWPOINT IN FAHRENHEIT
  RH     - RELATIVE HUMIDITY IN PERCENT
  WIND   - DIRECTION AND SPEED IN MPH
  PRES   - MEAN SEA LEVEL PRESSURE IN INCHES OF HG
  WCI    - WIND CHILL INDEX
  VSB    - VISIBILITY IN MILES
  HX     - HEAT INDEX
  TC     - TEMPERATURE IN CELSIUS
  VRB    - VARIABLE WIND DIRECTION
  N/A    - NOT AVAILABLE
  
      

Other recent Regional Weather Roundups

Thu Dec 8, 3:10pm

Thu Dec 8, 2:10pm

Thu Dec 8, 1:10pm

Thu Dec 8, 12:10pm

Thu Dec 8, 11:10am

Thu Dec 8, 10:10am

Thu Dec 8, 9:10am

Thu Dec 8, 8:10am

Thu Dec 8, 7:10am

Thu Dec 8, 6:10am

Thu Dec 8, 5:10am

Thu Dec 8, 4:10am

Thu Dec 8, 3:10am

Thu Dec 8, 2:10am

Thu Dec 8, 1:10am

Thu Dec 8, 12:10am

Wed Dec 7, 11:10pm

Wed Dec 7, 10:10pm

Wed Dec 7, 9:10pm

Wed Dec 7, 8:10pm

Wed Dec 7, 7:10pm

Wed Dec 7, 6:10pm

Wed Dec 7, 5:10pm

Wed Dec 7, 4:10pm

Wed Dec 7, 3:10pm

Wed Dec 7, 2:10pm

Wed Dec 7, 1:10pm

Wed Dec 7, 12:10pm

Wed Dec 7, 11:10am

Wed Dec 7, 10:10am

Wed Dec 7, 9:10am

Wed Dec 7, 8:10am

Wed Dec 7, 7:10am

Wed Dec 7, 6:10am

Wed Dec 7, 5:10am

Wed Dec 7, 4:10am

Wed Dec 7, 3:10am

Wed Dec 7, 2:10am

Wed Dec 7, 1:10am

Wed Dec 7, 12:10am

Tue Dec 6, 11:10pm

Tue Dec 6, 10:10pm

Tue Dec 6, 9:10pm

Tue Dec 6, 8:10pm

Tue Dec 6, 7:10pm

Tue Dec 6, 6:10pm

Tue Dec 6, 5:10pm

Tue Dec 6, 4:10pm

Tue Dec 6, 3:10pm

Tue Dec 6, 2:10pm

Tue Dec 6, 1:10pm

Tue Dec 6, 11:10am

Tue Dec 6, 10:10am

Tue Dec 6, 9:10am

Tue Dec 6, 8:10am

Tue Dec 6, 7:10am

Tue Dec 6, 6:10am

Tue Dec 6, 5:10am

Tue Dec 6, 4:10am

Tue Dec 6, 3:10am

Tue Dec 6, 2:10am

Tue Dec 6, 1:10am

Tue Dec 6, 12:10am

Mon Dec 5, 11:10pm

Mon Dec 5, 10:10pm

Mon Dec 5, 9:10pm

Mon Dec 5, 8:10pm

Mon Dec 5, 7:10pm

Mon Dec 5, 6:10pm

Mon Dec 5, 5:10pm

Mon Dec 5, 4:10pm

Mon Dec 5, 3:10pm

Mon Dec 5, 2:10pm

Mon Dec 5, 1:10pm

Mon Dec 5, 12:10pm

Mon Dec 5, 11:10am

Mon Dec 5, 10:10am

Mon Dec 5, 9:10am

Mon Dec 5, 8:10am

Mon Dec 5, 7:10am

Mon Dec 5, 6:10am

Mon Dec 5, 5:10am

Mon Dec 5, 4:10am

Mon Dec 5, 3:10am

Mon Dec 5, 2:10am

Mon Dec 5, 1:10am

Mon Dec 5, 12:10am

Sun Dec 4, 11:10pm

Sun Dec 4, 10:10pm

Sun Dec 4, 9:10pm

Sun Dec 4, 8:10pm

Sun Dec 4, 7:10pm

Sun Dec 4, 6:10pm

Sun Dec 4, 5:10pm

Sun Dec 4, 4:10pm

Sun Dec 4, 3:10pm

Sun Dec 4, 2:10pm

Sun Dec 4, 1:10pm

Sun Dec 4, 12:10pm

Sun Dec 4, 11:10am

Sun Dec 4, 10:10am

Sun Dec 4, 9:10am

Sun Dec 4, 8:10am

Sun Dec 4, 7:10am

Sun Dec 4, 6:10am

Sun Dec 4, 5:10am

Sun Dec 4, 4:10am

Sun Dec 4, 3:10am

Sun Dec 4, 2:10am

Sun Dec 4, 1:10am

Sun Dec 4, 12:10am

Sat Dec 3, 11:10pm

Sat Dec 3, 10:10pm

Sat Dec 3, 9:10pm

Sat Dec 3, 8:10pm

Sat Dec 3, 7:10pm

Sat Dec 3, 6:10pm

Sat Dec 3, 5:10pm

Sat Dec 3, 4:10pm

Sat Dec 3, 3:10pm

Sat Dec 3, 2:10pm

Sat Dec 3, 1:10pm

Sat Dec 3, 12:10pm

Sat Dec 3, 11:10am

Sat Dec 3, 10:10am

Sat Dec 3, 9:10am

Sat Dec 3, 8:10am

Sat Dec 3, 7:10am

Sat Dec 3, 6:10am

Sat Dec 3, 5:10am

Sat Dec 3, 4:10am

Sat Dec 3, 3:10am

Sat Dec 3, 2:10am

Sat Dec 3, 1:10am

Sat Dec 3, 12:10am

Fri Dec 2, 11:10pm

Fri Dec 2, 10:10pm

Fri Dec 2, 9:10pm

Fri Dec 2, 8:10pm

Fri Dec 2, 7:10pm

Fri Dec 2, 6:10pm

Fri Dec 2, 5:10pm

Fri Dec 2, 4:10pm

Fri Dec 2, 3:10pm

Fri Dec 2, 2:10pm

Fri Dec 2, 1:10pm

Fri Dec 2, 12:10pm

Fri Dec 2, 11:10am

Fri Dec 2, 10:10am

Fri Dec 2, 9:10am

Fri Dec 2, 8:10am

Fri Dec 2, 7:10am

Fri Dec 2, 6:10am

Fri Dec 2, 5:10am

Fri Dec 2, 4:10am

Fri Dec 2, 3:10am

Fri Dec 2, 2:10am

Fri Dec 2, 1:10am

Fri Dec 2, 12:10am

Thu Dec 1, 11:10pm

Thu Dec 1, 10:10pm

Thu Dec 1, 9:10pm

Thu Dec 1, 8:10pm

Thu Dec 1, 7:10pm

Thu Dec 1, 6:10pm

Thu Dec 1, 5:10pm

Thu Dec 1, 4:10pm

Meta data:

ID: 0dc348ed-f8b0-4958-be38-04e60abd83c9
Link: https://api.weather.gov/products/0dc348ed-f8b0-4958-be38-04e60abd83c9